Back to catalog

STARLINK-31745

AliveCommunicationsVLEO
NORAD 60329·PAYLOAD·🇺🇸 United States

Launched Aug 2, 2024 from Cape Canaveral Space Force Station

Loading…

Next Passes (next 24 hours)

TLE

FreshSource: CelesTrak SupGP

Epoch: Sep 14, 2026, 21:11 UTC

1 60329C 24136A   26257.88312500  .00040078  00000+0  12890-2 0  2572
2 60329  53.1588 275.6711 0001161  86.7657  72.8366 15.31676058    14

Track STARLINK-31745 in real time with AllMySat

Download on the App Store